When you browse on this site, cookies collect data to enhance your experience and personalize the content and advertising you see.
Visit our Privacy Policy to learn more. By continuing to use the site, you agree to this use of cookies and data.

Meteo pe oră la Bansko

Astăzi, 4 Iulie, Sâmbătă

Timp Temperatura Precipitaţii Vânt Presiune Umiditate
00:00 +22°C° 0 mm 1 m/s 719 mmHg 81%
01:00 +22°C° 0 mm 1 m/s 719 mmHg 82%
02:00 +20°C° 0 mm 2 m/s 719 mmHg 81%
03:00 +20°C° 0 mm 2 m/s 719 mmHg 83%
04:00 +21°C° 0 mm 1 m/s 719 mmHg 84%
05:00 +20°C° 0 mm 1 m/s 719 mmHg 85%
06:00 +22°C° 0 mm 1 m/s 719 mmHg 82%
07:00 +23°C° 0 mm 1 m/s 720 mmHg 79%
08:00 +25°C° 0 mm 2 m/s 720 mmHg 75%
09:00 +26°C° 0.3 mm 2 m/s 720 mmHg 72%
10:00 +27°C° 0.3 mm 2 m/s 720 mmHg 68%
11:00 +28°C° 0.3 mm 2 m/s 720 mmHg 65%
12:00 +29°C° 0.4 mm 2 m/s 720 mmHg 61%
13:00 +29°C° 0.4 mm 2 m/s 720 mmHg 58%
14:00 +30°C° 0.4 mm 2 m/s 720 mmHg 54%
15:00 +30°C° 0.1 mm 2 m/s 719 mmHg 55%
16:00 +30°C° 0.1 mm 2 m/s 719 mmHg 56%
17:00 +30°C° 0.1 mm 2 m/s 719 mmHg 57%
18:00 +28°C° 0.2 mm 2 m/s 719 mmHg 65%
19:00 +26°C° 0.2 mm 2 m/s 719 mmHg 73%
20:00 +24°C° 0.2 mm 1 m/s 719 mmHg 81%
21:00 +23°C° 0 mm 1 m/s 719 mmHg 82%
22:00 +22°C° 0 mm 1 m/s 719 mmHg 84%
23:00 +21°C° 0 mm 1 m/s 719 mmHg 85%

Mâine, 5 Iulie, Duminică

Timp Temperatura Precipitaţii Vânt Presiune Umiditate
00:00 +21°C° 0 mm 1 m/s 719 mmHg 86%
01:00 +21°C° 0 mm 1 m/s 719 mmHg 87%
02:00 +20°C° 0 mm 1 m/s 719 mmHg 88%
03:00 +20°C° 0 mm 1 m/s 719 mmHg 88%
04:00 +19°C° 0 mm 1 m/s 719 mmHg 89%
05:00 +19°C° 0 mm 1 m/s 718 mmHg 89%
06:00 +21°C° 0 mm 1 m/s 719 mmHg 84%
07:00 +21°C° 0 mm 2 m/s 719 mmHg 80%
08:00 +24°C° 0 mm 2 m/s 719 mmHg 76%
09:00 +25°C° 0 mm 2 m/s 719 mmHg 72%
10:00 +26°C° 0 mm 3 m/s 720 mmHg 68%
11:00 +28°C° 0 mm 3 m/s 720 mmHg 64%
12:00 +28°C° 0.7 mm 3 m/s 719 mmHg 65%
13:00 +28°C° 0.7 mm 3 m/s 719 mmHg 67%
14:00 +28°C° 0.7 mm 3 m/s 719 mmHg 68%
15:00 +28°C° 1.3 mm 3 m/s 718 mmHg 71%
16:00 +27°C° 1.3 mm 3 m/s 718 mmHg 73%
17:00 +27°C° 1.3 mm 3 m/s 718 mmHg 76%
18:00 +26°C° 0.6 mm 2 m/s 718 mmHg 80%
19:00 +24°C° 0.6 mm 2 m/s 718 mmHg 84%
20:00 +23°C° 0.6 mm 2 m/s 718 mmHg 88%
21:00 +21°C° 0.2 mm 2 m/s 718 mmHg 88%
22:00 +21°C° 0.2 mm 2 m/s 718 mmHg 89%
23:00 +20°C° 0.2 mm 2 m/s 718 mmHg 90%

Poimâine, 6 Iulie, Luni

Timp Temperatura Precipitaţii Vânt Presiune Umiditate
00:00 +21°C° 0.1 mm 1 m/s 718 mmHg 90%
01:00 +20°C° 0.1 mm 1 m/s 718 mmHg 90%
02:00 +20°C° 0.1 mm 1 m/s 717 mmHg 90%
03:00 +20°C° 0.1 mm 1 m/s 717 mmHg 91%
04:00 +19°C° 0.1 mm 1 m/s 717 mmHg 91%
05:00 +19°C° 0.1 mm 1 m/s 716 mmHg 91%
06:00 +21°C° 0 mm 1 m/s 717 mmHg 88%
07:00 +21°C° 0 mm 2 m/s 717 mmHg 85%
08:00 +24°C° 0 mm 2 m/s 717 mmHg 82%
09:00 +25°C° 0 mm 2 m/s 717 mmHg 75%
10:00 +27°C° 0 mm 2 m/s 717 mmHg 69%
11:00 +28°C° 0 mm 2 m/s 717 mmHg 62%
12:00 +29°C° 0.3 mm 2 m/s 716 mmHg 60%
13:00 +30°C° 0.3 mm 2 m/s 716 mmHg 57%
14:00 +31°C° 0.3 mm 2 m/s 716 mmHg 54%
15:00 +30°C° 0.7 mm 2 m/s 715 mmHg 56%
16:00 +30°C° 0.7 mm 2 m/s 715 mmHg 59%
17:00 +30°C° 0.7 mm 2 m/s 714 mmHg 61%
18:00 +28°C° 0.3 mm 2 m/s 714 mmHg 68%
19:00 +26°C° 0.3 mm 2 m/s 714 mmHg 75%
20:00 +24°C° 0.3 mm 2 m/s 714 mmHg 82%
21:00 +23°C° 0.1 mm 2 m/s 714 mmHg 83%
22:00 +22°C° 0.1 mm 1 m/s 714 mmHg 84%
23:00 +21°C° 0.1 mm 1 m/s 714 mmHg 85%

7 Iulie, Marţi

Timp Temperatura Precipitaţii Vânt Presiune Umiditate
00:00 +21°C° 0 mm 1 m/s 714 mmHg 85%
01:00 +21°C° 0 mm 1 m/s 714 mmHg 85%
02:00 +21°C° 0 mm 1 m/s 714 mmHg 86%
03:00 +20°C° 0 mm 1 m/s 714 mmHg 86%
04:00 +20°C° 0 mm 1 m/s 713 mmHg 87%
05:00 +20°C° 0 mm 1 m/s 713 mmHg 87%
06:00 +21°C° 0 mm 1 m/s 714 mmHg 84%
07:00 +23°C° 0 mm 1 m/s 714 mmHg 82%
08:00 +25°C° 0 mm 1 m/s 714 mmHg 79%
09:00 +26°C° 0.5 mm 2 m/s 715 mmHg 76%
10:00 +27°C° 0.5 mm 2 m/s 715 mmHg 73%
11:00 +28°C° 0.5 mm 3 m/s 715 mmHg 70%
12:00 +28°C° 0.5 mm 3 m/s 715 mmHg 69%
13:00 +28°C° 0.5 mm 3 m/s 715 mmHg 68%
14:00 +29°C° 0.5 mm 4 m/s 716 mmHg 67%
15:00 +28°C° 0.7 mm 4 m/s 716 mmHg 70%
16:00 +27°C° 0.7 mm 4 m/s 716 mmHg 72%
17:00 +26°C° 0.7 mm 4 m/s 716 mmHg 75%
18:00 +24°C° 0.3 mm 3 m/s 716 mmHg 79%
19:00 +20°C° 0.3 mm 3 m/s 716 mmHg 83%
20:00 +18°C° 0.3 mm 3 m/s 717 mmHg 87%
21:00 +17°C° 0 mm 2 m/s 717 mmHg 87%
22:00 +17°C° 0 mm 2 m/s 718 mmHg 88%
23:00 +16°C° 0 mm 2 m/s 718 mmHg 88%

8 Iulie, Miercuri

Timp Temperatura Precipitaţii Vânt Presiune Umiditate
00:00 +15°C° 0 mm 2 m/s 718 mmHg 89%
01:00 +15°C° 0 mm 2 m/s 719 mmHg 90%
02:00 +14°C° 0 mm 2 m/s 719 mmHg 90%
03:00 +14°C° 0 mm 2 m/s 719 mmHg 91%
04:00 +13°C° 0 mm 2 m/s 719 mmHg 92%
05:00 +13°C° 0 mm 2 m/s 719 mmHg 92%
06:00 +14°C° 0 mm 2 m/s 719 mmHg 86%
07:00 +16°C° 0 mm 2 m/s 720 mmHg 80%
08:00 +17°C° 0 mm 3 m/s 720 mmHg 73%
09:00 +18°C° 0 mm 3 m/s 721 mmHg 68%
10:00 +20°C° 0 mm 3 m/s 721 mmHg 63%
11:00 +21°C° 0 mm 4 m/s 721 mmHg 58%
12:00 +22°C° 0 mm 4 m/s 721 mmHg 56%
13:00 +23°C° 0 mm 4 m/s 721 mmHg 55%
14:00 +25°C° 0 mm 4 m/s 721 mmHg 53%
15:00 +25°C° 0 mm 3 m/s 721 mmHg 56%
16:00 +25°C° 0 mm 3 m/s 721 mmHg 58%
17:00 +25°C° 0 mm 3 m/s 721 mmHg 60%
18:00 +23°C° 0 mm 2 m/s 721 mmHg 68%
19:00 +20°C° 0 mm 2 m/s 721 mmHg 76%
20:00 +19°C° 0 mm 1 m/s 722 mmHg 84%
21:00 +19°C° 0 mm 1 m/s 722 mmHg 86%
22:00 +18°C° 0 mm 1 m/s 722 mmHg 87%
23:00 +16°C° 0 mm 1 m/s 723 mmHg 89%

9 Iulie, Joi

Timp Temperatura Precipitaţii Vânt Presiune Umiditate
00:00 +16°C° 0 mm 1 m/s 723 mmHg 89%
01:00 +15°C° 0 mm 1 m/s 723 mmHg 90%
02:00 +14°C° 0 mm 0 m/s 723 mmHg 90%
03:00 +14°C° 0 mm 0 m/s 723 mmHg 91%
04:00 +13°C° 0 mm 0 m/s 723 mmHg 91%
05:00 +13°C° 0 mm 0 m/s 723 mmHg 91%
06:00 +15°C° 0 mm 0 m/s 723 mmHg 85%
07:00 +19°C° 0 mm 1 m/s 723 mmHg 80%
08:00 +21°C° 0 mm 1 m/s 724 mmHg 74%
09:00 +23°C° 0 mm 1 m/s 724 mmHg 70%
10:00 +24°C° 0 mm 1 m/s 724 mmHg 66%
11:00 +26°C° 0 mm 1 m/s 724 mmHg 61%
12:00 +27°C° 0 mm 1 m/s 724 mmHg 59%
13:00 +27°C° 0 mm 1 m/s 723 mmHg 56%
14:00 +28°C° 0 mm 1 m/s 723 mmHg 54%
15:00 +28°C° 0 mm 1 m/s 723 mmHg 54%
16:00 +28°C° 0 mm 1 m/s 722 mmHg 54%
17:00 +28°C° 0 mm 1 m/s 722 mmHg 54%
18:00 +26°C° 0 mm 1 m/s 722 mmHg 61%
19:00 +24°C° 0 mm 1 m/s 722 mmHg 68%
20:00 +22°C° 0 mm 1 m/s 721 mmHg 75%
21:00 +21°C° 0 mm 1 m/s 721 mmHg 77%
22:00 +20°C° 0 mm 1 m/s 722 mmHg 80%
23:00 +20°C° 0 mm 1 m/s 722 mmHg 82%
Arată mai mult